This is the latest recevied weather packets stored in our database for station/object K6GMW. If no packets are shown the sender has not sent any weather packets the latest 10 day(s).
| Time | Temp. | Humidity | Pressure | Rain* | Wind** | Luminosity | Snow |
|---|---|---|---|---|---|---|---|
| 1777987223 | 21.67° C | 85% | 1007.9 hPa | 0 mm | - | 29 W/m² | - |
| 1777986919 | 21.67° C | 85% | 1007.9 hPa | 0 mm | - | 28 W/m² | - |
| 1777986618 | 21.67° C | 85% | 1007.9 hPa | 0 mm | - | 32 W/m² | - |
| 1777986315 | 21.67° C | 85% | 1007.9 hPa | 0 mm | - | 28 W/m² | - |
| 1777986014 | 21.11° C | 85% | 1008 hPa | 0 mm | - | 25 W/m² | - |
| 1777985710 | 21.11° C | 85% | 1008.1 hPa | 0 mm | - | 24 W/m² | - |
| 1777985407 | 21.11° C | 85% | 1007.7 hPa | 0 mm | - | 22 W/m² | - |
| 1777985103 | 21.11° C | 85% | 1007.9 hPa | 0 mm | - | 26 W/m² | - |
| 1777984799 | 21.11° C | 85% | 1007.8 hPa | 0 mm | - | 23 W/m² | - |
| 1777984496 | 21.11° C | 85% | 1007.6 hPa | 0 mm | - | 16 W/m² | - |
| 1777984192 | 21.11° C | 85% | 1007.6 hPa | 0 mm | - | 16 W/m² | - |
| 1777983890 | 21.11° C | 85% | 1007.4 hPa | 0 mm | - | 14 W/m² | - |
| 1777983586 | 21.11° C | 84% | 1007.4 hPa | 0 mm | - | 13 W/m² | - |
| 1777983283 | 21.11° C | 85% | 1007.5 hPa | 0 mm | - | 11 W/m² | - |
| 1777982979 | 21.11° C | 84% | 1007.4 hPa | 0 mm | - | 9 W/m² | - |
| 1777982676 | 21.11° C | 84% | 1007.4 hPa | 0 mm | - | 8 W/m² | - |
| 1777982375 | 21.11° C | 84% | 1007.4 hPa | 0 mm | - | 6 W/m² | - |
| 1777982072 | 21.11° C | 84% | 1007.6 hPa | 0 mm | - | 5 W/m² | - |
| 1777981769 | 21.11° C | 84% | 1007.7 hPa | 0 mm | - | 3 W/m² | - |
| 1777981465 | 21.11° C | 84% | 1007.7 hPa | 0 mm | - | 2 W/m² | - |
| 1777981162 | 21.11° C | 83% | 1007.7 hPa | 0 mm | - | 1 W/m² | - |
| 1777980859 | 21.11° C | 83% | 1007.7 hPa | 0 mm | - | 1 W/m² | - |
| 1777980554 | 21.11° C | 83% | 1007.5 hPa | 0 mm | - | 0 W/m² | - |
| 1777980253 | 21.11° C | 83% | 1007.6 hPa | 0 mm | - | 0 W/m² | - |
| 1777979948 | 21.11° C | 83% | 1007.5 hPa | 0 mm | - | 0 W/m² | - |
* Rain latest hour (hover to see other rain measurements)
** Current wind speed in m/s (hover to see current wind gust speed)